Regional Weather Roundup
Issued by NWS

Home | Current Version | Previous Version | Text Only | Print | Product List | Glossary Off
Versions: 1 2 3 4 5 6 7 8 9 10 11 12 13 14 15 16 17 18 19 20 21 22 23 24 25 26 27 28 29 30 31 32 33 34 35 36 37 38 39 40 41 42 43 44 45 46 47 48 49 50

000
ASUS43 KIND 101109
RWRIN

WEATHER ROUNDUP FOR INDIANA
NATIONAL WEATHER SERVICE INDIANAPOLIS IN
600 AM EST SAT DEC 10 2016

NOTE: "FAIR" INDICATES FEW OR NO CLOUDS BELOW 12,000 FEET WITH NO
SIGNIFICANT WEATHER AND/OR OBSTRUCTIONS TO VISIBILITY.

* - STATION DOES NOT REPORT WEATHER SUCH AS PRECIPITATION OR FOG.

+ - STATION NOT QUALITY CONTROLLED BY THE NATIONAL WEATHER SERVICE.
    USE DATA WITH CAUTION...ESPECIALLY DEWPOINT AND RELATIVE
    HUMIDITY OBSERVATIONS.

INZ001>003-010>013-019-020-101200-
NORTHWEST INDIANA

CITY           SKY/WX    TMP DP  RH WIND       PRES   REMARKS
GARY /AIRPORT/ CLOUDY    23  14  68 W8        30.52S WCI  14
KNOX *+        CLOUDY    21   0  39 W7        30.51S WCI  13
LA PORTE +     CLOUDY    20  13  75 W9        30.50F WCI   9
MICHIGAN CITY+ FLURRIES  21  16  79 SW8       30.50S WCI  12
MONTICELLO +   CLOUDY    23  12  62 W6        30.52R WCI  15
RENSSELAER +     N/A     23  18  80 W10       30.53R WCI  12
VALPARAISO     CLOUDY    21  13  71 W6        30.51S WCI  13

$$

LMZ046-743>745-101200-
SOUTHERN LAKE MICHIGAN

STATION/POSITION TIME  TEMP    WIND        PRES    WAVE
                       AIR SEA DIR/SP/G            HT
                 (UTC) (F)     (DEG/KT/KT) (MB)    (FT)

$$

INZ004-005-014>016-021>024-101200-
NORTH CENTRAL INDIANA

CITY           SKY/WX    TMP DP  RH WIND       PRES   REMARKS
GOSHEN         MOCLDY    21  11  65 W13       30.48S WCI   9
LOGANSPORT +   CLOUDY    23  14  68 W7        30.53S WCI  15
PERU/GRISSOM   CLOUDY    22  15  72 W7        30.50R WCI  14
ROCHESTER +    CLOUDY    23  18  80 W5        30.51S WCI  17
SOUTH BEND     CLOUDY    18  12  77 SW10      30.48S WCI   6
WARSAW +       CLOUDY    21  12  68 W9        30.50R WCI  11

$$

INZ006>009-017-018-025>027-101200-
NORTHEAST INDIANA

CITY           SKY/WX    TMP DP  RH WIND       PRES   REMARKS
ANGOLA *+      PTCLDY    19  16  86 W6        30.45R WCI  11
AUBURN +       CLEAR     19  14  79 SW3       30.48S
FORT WAYNE     CLOUDY    20  13  74 W8        30.50R WCI  10
HUNTINGTON +   CLOUDY    19  13  76 W6        30.51R WCI  11
KENDALLVILLE + MOCLDY    19  14  79 W12       30.46S WCI   7

$$

INZ028-029-035-036-043>045-051>053-101200-
WEST CENTRAL INDIANA

CITY           SKY/WX    TMP DP  RH WIND       PRES   REMARKS
CRAWFORDSVL +  CLOUDY    19  16  87 SW3       30.54S
GREENCASTLE +  CLOUDY    21  18  86 CALM      30.55R
LAFAYETTE      CLOUDY    22  16  78 SW7       30.54S WCI  13
TERRE HAUTE    CLOUDY    24  15  68 W6        30.57R WCI  17

$$

INZ030>032-037>040-046>048-054>057-064-065-101200-
CENTRAL INDIANA

CITY           SKY/WX    TMP DP  RH WIND       PRES   REMARKS
CP ATTERBURY + CLOUDY    25  19  80 W3        30.56R
FISHERS *+     CLOUDY    21  19  93 W3        30.54R
FRANKFORT +    CLOUDY    25  19  80 W9        30.53F WCI  15
GREENWOOD *+   CLOUDY    23  17  75 W6        30.53S WCI  16
INDIANAPOLIS   CLOUDY    22  14  71 W7        30.53R WCI  13
-EAGLE CREEK   CLOUDY    22  14  71 W6        30.53R WCI  14
KOKOMO +       FLURRIES  23  16  74 W6        30.52  WCI  16
MARION +       CLOUDY    21  15  79 W6        30.52R WCI  13
MT COMFORT *+  CLOUDY    21  16  79 W8        30.53R WCI  12
SHELBYVILLE    CLOUDY    24  16  71 W6        30.53R WCI  17
ZIONSVILLE +   CLOUDY    21  17  84 W7        30.53R WCI  12

$$

INZ033-034-041-042-049-050-058-059-101200-
EAST CENTRAL INDIANA

CITY           SKY/WX    TMP DP  RH WIND       PRES   REMARKS
MUNCIE         CLOUDY    23  16  74 NW5       30.51R WCI  17

$$

INZ060-061-067>069-081>083-085>088-101200-
SOUTHWEST INDIANA

CITY           SKY/WX    TMP DP  RH WIND       PRES   REMARKS
EVANSVILLE     CLOUDY    20  15  81 W3        30.60S
HUNTINGBURG *+ PTCLDY    16  12  86 CALM      30.59R
WASHINGTON +   PTCLDY    22  20  91 W3        30.59R

$$

INZ062-063-066-070>080-084-089>092-101200-
SOUTH CENTRAL AND SOUTHEAST INDIANA

CITY           SKY/WX    TMP DP  RH WIND       PRES   REMARKS
BLOOMINGTON    CLOUDY    22  17  81 W3        30.54S
MADISON *+     CLOUDY    21  18  86 CALM      30.57R
NORTH VERNON + CLOUDY    23  23 100 SW3       30.55S
SEYMOUR +      CLOUDY    23  19  86 CALM      30.57R

$$




USA.gov is the U.S. government's official web portal to all federal, state and local government web resources and services.